[[{"header":{"parameterUnit":"m.s-1","parameterCategory":1,"la1":30.2991,"la2":30.254,"lo1":-89.0895,"lo2":-89.0444,"dy":0.0017,"dx":0.0017,"nx":28,"ny":28,"refTime":"2023-09-25T09:00:00:Z","depth":0,"parameterNumber":2,"parameterNumberName":"U-component_of_WINDS"},"data":[0,0,0,0,0,0,0,0,0,0,0,0,0,0,0,0,0,0,0,0,0,0,0,0,0,0,0,0,0,0,0,0,0,0,0,0,0,0,0,0,0,0,0,0,0,0,0,0,0,0,0,0,0,0,0,0,0,0,-0.1417,-0.1417,0,-0.1408,-0.1408,-0.1408,-0.1374,-0.1374,-0.1373,-0.1372,-0.1365,-0.1365,-0.1366,0,0,0,0,0,0,0,0,0,0,0,0,0,-0.1406,-0.1407,-0.1417,-0.1417,-0.1417,-0.1408,-0.1408,-0.1408,-0.1375,-0.1374,-0.1373,-0.1372,-0.1364,-0.1365,-0.1366,0,0,0,0,0,0,0,0,0,0,0,0,0,-0.1406,-0.1407,-0.1417,-0.1399,-0.1397,-0.1408,-0.1408,-0.1408,-0.1375,-0.1374,-0.1372,-0.1371,-0.1364,-0.1365,-0.1366,-0.1394,0,0,-0.1368,-0.1368,0,0,0,0,0,0,0,0,-0.1406,-0.1406,-0.1402,-0.14,-0.1398,-0.1391,-0.1401,-0.1403,-0.1375,-0.1383,-0.1372,-0.1371,-0.1374,-0.1374,-0.1375,-0.1393,-0.1393,-0.1368,-0.1369,-0.1369,-0.1369,0,0,0,0,0,0,0,-0.1406,-0.1406,-0.1413,-0.1402,-0.14,-0.1392,-0.139,-0.1402,-0.1386,-0.1383,-0.138,-0.1379,-0.1373,-0.1375,-0.1375,-0.1393,-0.1368,-0.1369,-0.1369,-0.137,-0.1434,-0.1435,0,0,0,0,0,0,-0.1408,-0.1406,-0.1414,-0.1413,-0.1399,-0.1393,-0.1391,-0.1395,-0.1385,-0.1383,-0.138,-0.1378,-0.1374,-0.1374,-0.1374,-0.1407,-0.1369,-0.137,-0.137,-0.1433,-0.1434,-0.1436,0,0,0,0,0,0,-0.1408,-0.1409,-0.1414,-0.1409,-0.1409,-0.1394,-0.1398,-0.1395,-0.1396,-0.1384,-0.1381,-0.1385,-0.1373,-0.1373,-0.1389,-0.1406,-0.137,-0.1371,-0.1431,-0.1433,-0.1435,-0.1472,0,0,0,0,0,0,-0.1408,-0.1409,-0.1419,-0.141,-0.141,-0.1428,-0.1399,-0.1396,-0.1398,-0.1394,-0.1387,-0.1384,-0.1372,-0.1388,-0.139,-0.1406,-0.1371,-0.143,-0.1432,-0.1434,-0.1469,-0.1474,-0.1479,0,0,0,0,0,-0.1408,-0.143,-0.142,-0.1421,-0.1422,-0.1429,-0.1429,-0.1414,-0.1399,-0.1409,-0.1401,-0.1385,-0.1404,-0.139,-0.1392,-0.1409,-0.1429,-0.1432,-0.1434,-0.1466,-0.1473,-0.1479,0,0,0,0,0,0,-0.1442,-0.1428,-0.1417,-0.1437,-0.1435,-0.1424,-0.1436,-0.1422,-0.1424,-0.1421,-0.1403,-0.1401,-0.142,-0.1416,-0.1401,-0.1436,-0.1414,-0.1417,-0.1437,-0.1444,-0.1449,-0.145,-0.1372,0,0,0,0,0,-0.1452,-0.1459,-0.1447,-0.1466,-0.1465,-0.1451,-0.1454,-0.1442,-0.1439,-0.1438,-0.1431,-0.143,-0.1435,-0.1439,-0.1444,-0.1468,-0.1466,-0.1481,-0.1486,-0.149,-0.1494,-0.1507,-0.1513,-0.1445,-0.1445,-0.1445,0,0,-0.1473,-0.1466,-0.1472,-0.1473,-0.1469,-0.1478,-0.145,-0.146,-0.1466,-0.144,-0.1454,-0.145,-0.1446,-0.1467,-0.1475,-0.1464,-0.1512,-0.1494,-0.1498,-0.1498,-0.151,-0.1517,-0.1522,-0.1447,-0.1446,-0.1446,0,0,-0.1515,-0.151,-0.1526,-0.1523,-0.1518,-0.1509,-0.1513,-0.1504,-0.15,-0.1514,-0.1495,-0.1502,-0.1512,-0.1511,-0.1511,-0.1554,-0.1539,-0.1556,-0.1583,-0.1596,-0.1602,-0.1606,-0.1622,-0.1627,-0.1559,-0.1559,-0.1559,0,-0.1541,-0.1552,-0.1535,-0.1546,-0.1548,-0.1524,-0.154,-0.1538,-0.1536,-0.1537,-0.1525,-0.1537,-0.1533,-0.1553,-0.1564,-0.1565,-0.1569,-0.1556,-0.1602,-0.1607,-0.1611,-0.1625,-0.1631,-0.1561,-0.1561,-0.1561,-0.156,0,-0.1585,-0.1593,-0.1606,-0.1604,-0.1607,-0.162,-0.1606,-0.1611,-0.1599,-0.1591,-0.1607,-0.1601,-0.1605,-0.1609,-0.1598,-0.1627,-0.162,-0.1605,-0.1583,-0.162,-0.1633,-0.1638,-0.1564,-0.1563,-0.1563,-0.1562,0,0,-0.1648,-0.1637,-0.1642,-0.1641,-0.1634,-0.164,-0.1653,-0.1656,-0.1661,-0.166,-0.1671,-0.168,-0.1666,-0.1667,-0.1656,-0.1667,-0.1702,-0.1651,-0.165,-0.1661,-0.1735,-0.1746,-0.1753,-0.1692,-0.1693,-0.1694,-0.1735,0,-0.1688,-0.1708,-0.1694,-0.1717,-0.1724,-0.1703,-0.1714,-0.1712,-0.1705,-0.1711,-0.1704,-0.1711,-0.1692,-0.1692,-0.1703,-0.1695,-0.1716,-0.1692,-0.1702,-0.1703,-0.1704,-0.176,-0.1772,-0.1811,-0.174,-0.1741,-0.1742,0,-0.1737,-0.1738,-0.1762,-0.1755,-0.1757,-0.1767,-0.1769,-0.1775,-0.1773,-0.1767,-0.1768,-0.1754,-0.1767,-0.1745,-0.1763,-0.1747,-0.175,-0.1747,-0.1749,-0.1749,-0.1725,-0.1762,-0.1824,-0.183,-0.175,-0.1749,-0.1749,0,-0.1781,-0.1788,-0.1804,-0.1803,-0.1795,-0.1803,-0.18,-0.1796,-0.1799,-0.1801,-0.1803,-0.1806,-0.1809,-0.1812,-0.18,-0.1785,-0.182,-0.1796,-0.1816,-0.1816,-0.1824,-0.1824,-0.1887,-0.1826,-0.1826,-0.1826,-0.1826,0,-0.1827,-0.1842,-0.1823,-0.1833,-0.185,-0.1833,-0.1851,-0.1846,-0.1843,-0.1852,-0.1833,-0.1842,-0.1825,-0.1832,-0.1823,-0.184,-0.1841,-0.1837,-0.1834,-0.1839,-0.1839,-0.1841,-0.1838,-0.1827,-0.1827,-0.1827,-0.1826,0,-0.1878,-0.1866,-0.1881,-0.1872,-0.1871,-0.1884,-0.1876,-0.1885,-0.1877,-0.1889,-0.1891,-0.1879,-0.1886,-0.1875,-0.1881,-0.1875,-0.1898,-0.1891,-0.1898,-0.1897,-0.1917,-0.1915,-0.1983,-0.1992,-0.1925,-0.1926,-0.1927,0,-0.1908,-0.192,-0.1912,-0.1916,-0.1914,-0.1921,-0.1924,-0.1909,-0.1913,-0.1911,-0.1921,-0.1927,-0.1931,-0.1944,-0.1937,-0.1942,-0.1935,-0.1959,-0.1936,-0.194,-0.1936,-0.1935,-0.1937,-0.1963,-0.1964,-0.1965,-0.1965,0,-0.1963,-0.1957,-0.1961,-0.1964,-0.1968,-0.1969,-0.197,-0.1974,-0.1958,-0.1964,-0.1971,-0.1975,-0.1981,-0.1988,-0.1991,-0.1989,-0.1975,-0.1973,-0.1977,-0.1982,-0.1986,-0.1985,-0.1912,-0.1971,-0.1971,-0.197,-0.197,-0.197,-0.2005,-0.2014,-0.2011,-0.2016,-0.2015,-0.2016,-0.2024,-0.2017,-0.2023,-0.2027,-0.2018,-0.2028,-0.2026,-0.2029,-0.2028,-0.2036,-0.2026,-0.2033,-0.2035,-0.2037,-0.204,-0.1985,-0.2037,-0.2037,-0.2036,-0.2036,-0.2036,0,-0.2059,-0.2056,-0.2061,-0.2062,-0.2067,-0.2053,-0.2053,-0.2058,-0.2067,-0.2066,-0.2071,-0.208,-0.2086,-0.2079,-0.2085,-0.2093,-0.2087,-0.2095,-0.2094,-0.2094,-0.2049,-0.2044,-0.21,-0.21,-0.21,-0.21,-0.21,-0.21,-0.2088,-0.2103,-0.2096,-0.2111,-0.2108,-0.2117,-0.2118,-0.2119,-0.2119,-0.213,-0.2135,-0.213,-0.2127,-0.2132,-0.2138,-0.2136,-0.2139,-0.215,-0.2146,-0.2103,-0.2097,-0.2091,-0.2087,-0.215,-0.2151,-0.219,-0.2191,-0.2191]},{"header":{"parameterUnit":"m.s-1","parameterCategory":1,"la1":30.2991,"la2":30.254,"lo1":-89.0895,"lo2":-89.0444,"dy":0.0017,"dx":0.0017,"nx":28,"ny":28,"refTime":"2023-09-25T09:00:00:Z","depth":0,"parameterNumber":3,"parameterNumberName":"V-component_of_WINDS"},"data":[0,0,0,0,0,0,0,0,0,0,0,0,0,0,0,0,0,0,0,0,0,0,0,0,0,0,0,0,0,0,0,0,0,0,0,0,0,0,0,0,0,0,0,0,0,0,0,0,0,0,0,0,0,0,0,0,0,0,1.9228,1.9228,0,1.9242,1.9242,1.9242,1.929,1.9291,1.9292,1.9293,1.9304,1.9304,1.9303,0,0,0,0,0,0,0,0,0,0,0,0,0,1.9239,1.9239,1.9228,1.9228,1.9228,1.9242,1.9242,1.9242,1.929,1.9291,1.9293,1.9294,1.9305,1.9304,1.9303,0,0,0,0,0,0,0,0,0,0,0,0,0,1.9242,1.9239,1.9228,1.9254,1.9256,1.9242,1.9242,1.9242,1.929,1.9291,1.9293,1.9295,1.9305,1.9304,1.9303,1.9263,0,0,1.9299,1.9299,0,0,0,0,0,0,0,0,1.9241,1.9241,1.925,1.9252,1.9255,1.9266,1.925,1.9249,1.9289,1.9277,1.9293,1.9295,1.929,1.929,1.9289,1.9263,1.9264,1.9299,1.9298,1.9298,1.9298,0,0,0,0,0,0,0,1.9241,1.9241,1.9233,1.925,1.9253,1.9264,1.9266,1.925,1.9274,1.9278,1.9282,1.9283,1.9292,1.929,1.929,1.9264,1.9299,1.9298,1.9298,1.9297,1.9203,1.9201,0,0,0,0,0,0,1.9238,1.924,1.9233,1.9234,1.9252,1.9262,1.9264,1.9261,1.9274,1.9278,1.9281,1.9285,1.9291,1.9291,1.929,1.9242,1.9298,1.9297,1.9296,1.9205,1.9203,1.9201,0,0,0,0,0,0,1.9238,1.9237,1.9232,1.9238,1.9238,1.926,1.9255,1.926,1.9259,1.9277,1.9281,1.9276,1.9292,1.9292,1.9269,1.9243,1.9296,1.9295,1.9207,1.9204,1.9202,1.9147,0,0,0,0,0,0,1.9238,1.9237,1.9223,1.9237,1.9238,1.9212,1.9254,1.9259,1.9257,1.9262,1.9272,1.9276,1.9294,1.927,1.9268,1.9243,1.9295,1.9209,1.9206,1.9202,1.9151,1.9143,1.9135,0,0,0,0,0,1.9238,1.9207,1.9222,1.9221,1.9221,1.921,1.921,1.9233,1.9255,1.924,1.9251,1.9275,1.9247,1.9267,1.9265,1.9239,1.9211,1.9207,1.9203,1.9154,1.9144,1.9136,0,0,0,0,0,0,1.9188,1.9209,1.9226,1.9199,1.9202,1.9219,1.9201,1.9221,1.9218,1.9223,1.9249,1.9251,1.9224,1.923,1.9252,1.92,1.9233,1.9228,1.9197,1.9187,1.918,1.9178,1.9294,0,0,0,0,0,1.9174,1.9164,1.9183,1.9157,1.9158,1.9179,1.9175,1.9192,1.9196,1.9198,1.9208,1.921,1.9201,1.9195,1.9188,1.9153,1.9154,1.9134,1.9126,1.9119,1.9114,1.9093,1.9083,1.9187,1.9187,1.9187,0,0,1.9144,1.9154,1.9147,1.9147,1.9152,1.9139,1.918,1.9166,1.9156,1.9195,1.9174,1.9181,1.9185,1.9155,1.9142,1.9159,1.9086,1.9114,1.9109,1.9107,1.9087,1.9077,1.9069,1.9184,1.9185,1.9185,0,0,1.9083,1.9091,1.9069,1.9073,1.908,1.9094,1.9088,1.9101,1.9107,1.9086,1.9114,1.9103,1.9089,1.9089,1.9088,1.9026,1.9046,1.9023,1.8981,1.896,1.8952,1.8945,1.892,1.8911,1.9018,1.9018,1.9018,0,1.9045,1.9029,1.9055,1.9038,1.9036,1.9072,1.9048,1.905,1.9054,1.9051,1.907,1.9051,1.9057,1.9026,1.901,1.9009,1.9001,1.9021,1.8951,1.8944,1.8938,1.8914,1.8905,1.9015,1.9015,1.9015,1.9016,0,1.898,1.8968,1.8949,1.8952,1.8949,1.8929,1.895,1.8943,1.8959,1.897,1.8947,1.8955,1.8949,1.8944,1.896,1.8914,1.8924,1.8947,1.898,1.8924,1.8902,1.8894,1.901,1.9011,1.9012,1.9013,0,0,1.8887,1.8904,1.8897,1.8897,1.8907,1.8898,1.8878,1.8873,1.8865,1.8867,1.8849,1.8835,1.8856,1.8854,1.8871,1.8853,1.8799,1.8877,1.8878,1.886,1.8746,1.8727,1.8716,1.8814,1.8812,1.8811,1.8744,0,1.8827,1.8796,1.8818,1.8783,1.8771,1.8803,1.8786,1.8789,1.8799,1.8789,1.8799,1.8788,1.8817,1.8816,1.88,1.8809,1.8776,1.8815,1.8795,1.8794,1.8791,1.8705,1.8686,1.8622,1.8736,1.8735,1.8734,0,1.8753,1.8751,1.8714,1.8725,1.872,1.8705,1.87,1.8691,1.8694,1.8703,1.87,1.872,1.87,1.8734,1.8704,1.873,1.8724,1.8727,1.8725,1.8722,1.8759,1.8697,1.8603,1.8592,1.8721,1.8722,1.8723,0,1.8686,1.8674,1.865,1.865,1.8662,1.865,1.8654,1.8659,1.8653,1.8649,1.8646,1.8639,1.8635,1.8629,1.8646,1.867,1.8613,1.8649,1.8617,1.8616,1.8602,1.8603,1.8503,1.8602,1.8602,1.8602,1.8602,0,1.8616,1.8591,1.862,1.8605,1.8577,1.8602,1.8574,1.8581,1.8585,1.857,1.8599,1.8584,1.8609,1.8596,1.8609,1.8581,1.858,1.8584,1.8587,1.858,1.8579,1.8575,1.8579,1.86,1.86,1.8601,1.8601,0,1.8535,1.8554,1.8529,1.8542,1.8545,1.8524,1.8534,1.8519,1.8531,1.8512,1.8509,1.8526,1.8512,1.8529,1.8517,1.8526,1.8487,1.8498,1.8486,1.8488,1.8454,1.8456,1.8346,1.8332,1.8442,1.8441,1.844,0,1.8488,1.847,1.8481,1.8473,1.8476,1.8464,1.8459,1.8482,1.8475,1.8476,1.846,1.8449,1.8441,1.8417,1.8427,1.8417,1.8427,1.8389,1.8425,1.8417,1.8423,1.8423,1.842,1.8381,1.8379,1.8378,1.8377,0,1.8401,1.8411,1.8403,1.8397,1.839,1.8387,1.8386,1.8377,1.8401,1.8392,1.8378,1.8372,1.8359,1.8346,1.8339,1.8341,1.8362,1.8366,1.8358,1.8349,1.8341,1.8342,1.8463,1.8368,1.8369,1.837,1.837,1.8371,1.8335,1.8319,1.8324,1.8313,1.8314,1.8312,1.8298,1.8308,1.8297,1.8289,1.8303,1.8285,1.8286,1.8278,1.8278,1.8263,1.8279,1.8267,1.8264,1.826,1.8254,1.8346,1.8262,1.8262,1.8263,1.8263,1.8263,0,1.8247,1.8252,1.8242,1.8239,1.8229,1.8252,1.825,1.8241,1.8225,1.8225,1.8216,1.8199,1.8186,1.8195,1.8184,1.817,1.8179,1.8166,1.8166,1.8166,1.8241,1.8249,1.8159,1.8159,1.8159,1.8159,1.8159,1.8159,1.82,1.8175,1.8184,1.8158,1.8163,1.8146,1.8143,1.814,1.814,1.812,1.8109,1.8116,1.8118,1.8107,1.8096,1.8099,1.8092,1.8075,1.808,1.8151,1.8161,1.817,1.8177,1.8074,1.8074,1.8006,1.8005,1.8005]}]]